Weather History for KTAZ - November, 2011

Change the Weather History Date:

Saturday, November 5, 2011

  Actual Average (KSPI) Record (KSPI)
Temperature  
Mean Temperature 48 °F 48 °F  
Max Temperature 60 °F 58 °F 78 °F (1978)
Min Temperature 37 °F 38 °F 21 °F (1991)
Degree Days  
Heating Degree Days 16 17  
Month to date heating degree days 81  
Since 1 July heating degree days 491  
Cooling Degree Days 0 0  
Month to date cooling degree days 0  
Year to date cooling degree days 1121  
Moisture  
Dew Point 39 °F    
Average Humidity 73    
Maximum Humidity 87    
Minimum Humidity 52    
Precipitation  
Precipitation 0.00 in 0.11 in 1.30 in (1941)
Month to date precipitation 0.52  
Year to date precipitation 32.22  
Snow  
Snow 0.00 in 0.00 in 3.70 in (1896)
Month to date snowfall 0.0  
Since 1 July snowfall T  
Since 1 September snowfall T  
Snow Depth -    
Sea Level Pressure  
Sea Level Pressure 30.16 in    
Wind  
Wind Speed 9 mph (SE)    
Max Wind Speed 18 mph    
Max Gust Speed 23 mph    
Visibility 10 miles    
Events      
T = Trace of Precipitation, MM = Missing Value Source: NWS Daily Summary

Daily Weather History Graph

Daily Weather History Graph

Search for Another Location

Airport or City:

Trip Planner

Search our weather history database for the weather conditions in past years. The results will help you decide how hot, cold, wet, or windy it might be!

Date:

Astronomy

Nov. 05, 2011 Rise Set
Actual Time 7:29 AM CDT 5:51 PM CDT
Civil Twilight 7:01 AM CDT 6:19 PM CDT
Nautical Twilight 6:29 AM CDT 6:51 PM CDT
Astronomical Twilight 5:58 AM CDT 7:22 PM CDT
Moon 3:08 PM CDT (11/5) 2:40 AM CDT (11/5)
Length of Visible Light 11h 17m
Length of Day
10h 21m
Waxing Gibbous, 78% of the Moon is Illuminated
Nov 5
Waxing Gibbous
Nov 10
Full
Nov 18
Last Quarter
Nov 25
New
Dec 2
First Quarter

Hourly Weather History & Observations

Time (CDT) Temp. Windchill Dew Point Humidity Pressure Visibility Wind Dir Wind Speed Gust Speed Precip Events Conditions
12:15 AM 41.0 °F 36.4 °F 35.6 °F 81% 30.21 in 10.0 mi ESE 6.9 mph - N/A   Clear
12:35 AM 39.2 °F 35.0 °F 33.8 °F 81% 30.22 in 10.0 mi ESE 5.8 mph - N/A   Clear
12:55 AM 39.2 °F 33.6 °F 35.6 °F 87% 30.21 in 10.0 mi ESE 8.1 mph - N/A   Clear
1:15 AM 39.2 °F 33.6 °F 33.8 °F 81% 30.20 in 10.0 mi ESE 8.1 mph - N/A   Clear
1:35 AM 39.2 °F 33.0 °F 33.8 °F 81% 30.20 in 10.0 mi ESE 9.2 mph - N/A   Clear
1:55 AM 41.0 °F 34.7 °F 33.8 °F 76% 30.20 in 10.0 mi ESE 10.4 mph - N/A   Clear
2:15 AM 41.0 °F 34.7 °F 33.8 °F 76% 30.20 in 10.0 mi ESE 10.4 mph - N/A   Clear
2:35 AM 39.2 °F 33.0 °F 33.8 °F 81% 30.20 in 10.0 mi ESE 9.2 mph - N/A   Clear
2:55 AM 39.2 °F 33.0 °F 33.8 °F 81% 30.20 in 10.0 mi ESE 9.2 mph - N/A   Clear
3:15 AM 39.2 °F 33.6 °F 33.8 °F 81% 30.20 in 10.0 mi ESE 8.1 mph - N/A   Clear
3:35 AM 39.2 °F 33.6 °F 33.8 °F 81% 30.20 in 10.0 mi ESE 8.1 mph - N/A   Clear
3:55 AM 39.2 °F 33.6 °F 33.8 °F 81% 30.19 in 10.0 mi ESE 8.1 mph - N/A   Clear
4:15 AM 37.4 °F 32.1 °F 33.8 °F 87% 30.19 in 10.0 mi ESE 6.9 mph - N/A   Clear
4:35 AM 37.4 °F 32.8 °F 33.8 °F 87% 30.19 in 10.0 mi ESE 5.8 mph - N/A   Clear
4:55 AM 37.4 °F 32.8 °F 33.8 °F 87% 30.19 in 10.0 mi ESE 5.8 mph - N/A   Clear
5:15 AM 37.4 °F 32.8 °F 33.8 °F 87% 30.20 in 10.0 mi SE 5.8 mph - N/A   Clear
5:35 AM 37.4 °F 32.8 °F 33.8 °F 87% 30.20 in 10.0 mi SE 5.8 mph - N/A   Clear
5:55 AM 37.4 °F 31.4 °F 33.8 °F 87% 30.20 in 10.0 mi SE 8.1 mph - N/A   Clear
6:15 AM 39.2 °F 33.6 °F 33.8 °F 81% 30.20 in 10.0 mi SE 8.1 mph - N/A   Clear
6:35 AM 37.4 °F 32.1 °F 33.8 °F 87% 30.21 in 10.0 mi SSE 6.9 mph - N/A   Clear
6:55 AM 37.4 °F 32.8 °F 33.8 °F 87% 30.21 in 10.0 mi SSE 5.8 mph - N/A   Clear
7:15 AM 37.4 °F 32.8 °F 33.8 °F 87% 30.21 in 10.0 mi SE 5.8 mph - N/A   Clear
7:35 AM 37.4 °F 32.1 °F 33.8 °F 87% 30.21 in 10.0 mi SE 6.9 mph - N/A   Clear
7:55 AM 37.4 °F 32.1 °F 33.8 °F 87% 30.22 in 10.0 mi SE 6.9 mph - N/A   Clear
8:15 AM 39.2 °F 33.6 °F 33.8 °F 81% 30.22 in 10.0 mi SE 8.1 mph - N/A   Clear
8:35 AM 41.0 °F 35.8 °F 35.6 °F 81% 30.23 in 10.0 mi SE 8.1 mph - N/A   Clear
8:55 AM 42.8 °F 37.5 °F 35.6 °F 76% 30.23 in 10.0 mi SE 9.2 mph - N/A   Clear
9:15 AM 42.8 °F 37.0 °F 37.4 °F 81% 30.23 in 10.0 mi SE 10.4 mph - N/A   Clear
9:35 AM 44.6 °F 39.7 °F 37.4 °F 76% 30.23 in 10.0 mi SE 9.2 mph - N/A   Clear
9:55 AM 46.4 °F 41.5 °F 39.2 °F 76% 30.22 in 10.0 mi SE 10.4 mph - N/A   Clear
10:15 AM 48.2 °F - 42.8 °F 82% 30.22 in 10.0 mi SSE 8.1 mph - N/A   Clear
10:35 AM 48.2 °F - 42.8 °F 82% 30.22 in 10.0 mi SSE 6.9 mph - N/A   Clear
10:55 AM 51.8 °F - 44.6 °F 76% 30.21 in 10.0 mi SSE 9.2 mph - N/A   Clear
11:15 AM 51.8 °F - 44.6 °F 76% 30.20 in 10.0 mi SSE 12.7 mph - N/A   Clear
11:35 AM 53.6 °F - 46.4 °F 77% 30.20 in 10.0 mi South 11.5 mph - N/A   Clear
11:55 AM 55.4 °F - 46.4 °F 72% 30.19 in 10.0 mi South 11.5 mph - N/A   Clear
12:15 PM 55.4 °F - 44.6 °F 67% 30.18 in 10.0 mi SSE 18.4 mph 23.0 mph N/A   Clear
12:35 PM 55.4 °F - 44.6 °F 67% 30.17 in 10.0 mi South 12.7 mph 21.9 mph N/A   Clear
12:55 PM 57.2 °F - 46.4 °F 67% 30.16 in 10.0 mi South 17.3 mph 21.9 mph N/A   Clear
1:15 PM 57.2 °F - 44.6 °F 63% 30.14 in 10.0 mi South 16.1 mph - N/A   Clear
1:35 PM 59.0 °F - 44.6 °F 59% 30.13 in 10.0 mi South 13.8 mph - N/A   Clear
1:55 PM 60.8 °F - 44.6 °F 55% 30.12 in 10.0 mi South 13.8 mph 19.6 mph N/A   Clear
2:15 PM 60.8 °F - 44.6 °F 55% 30.12 in 10.0 mi SSE 13.8 mph - N/A   Clear
2:35 PM 60.8 °F - 44.6 °F 55% 30.11 in 10.0 mi South 16.1 mph 20.7 mph N/A   Clear
2:55 PM 60.8 °F - 44.6 °F 55% 30.10 in 10.0 mi SSE 15.0 mph 21.9 mph N/A   Clear
3:15 PM 60.8 °F - 44.6 °F 55% 30.09 in 10.0 mi SSE 17.3 mph 20.7 mph N/A   Clear
3:35 PM 60.8 °F - 44.6 °F 55% 30.08 in 10.0 mi SSE 15.0 mph 23.0 mph N/A   Clear
3:55 PM 60.8 °F - 44.6 °F 55% 30.08 in 10.0 mi South 13.8 mph - N/A   Clear
4:15 PM 60.8 °F - 42.8 °F 52% 30.08 in 10.0 mi SE 17.3 mph 20.7 mph N/A   Clear
4:35 PM 59.0 °F - 42.8 °F 55% 30.07 in 10.0 mi SE 11.5 mph - N/A   Clear
4:55 PM 57.2 °F - 42.8 °F 59% 30.07 in 10.0 mi SE 12.7 mph - N/A   Clear
5:15 PM 57.2 °F - 42.8 °F 59% 30.06 in 10.0 mi SE 16.1 mph - N/A   Clear
5:35 PM 55.4 °F - 42.8 °F 63% 30.05 in 10.0 mi SE 10.4 mph - N/A   Clear
5:55 PM 55.4 °F - 42.8 °F 63% 30.05 in 10.0 mi SE 10.4 mph - N/A   Clear
6:15 PM 53.6 °F - 41.0 °F 62% 30.06 in 10.0 mi SE 10.4 mph - N/A   Clear
6:35 PM 53.6 °F - 41.0 °F 62% 30.06 in 10.0 mi SE 12.7 mph - N/A   Clear
6:55 PM 51.8 °F - 41.0 °F 67% 30.05 in 10.0 mi SE 12.7 mph - N/A   Clear
7:15 PM 51.8 °F - 41.0 °F 67% 30.05 in 10.0 mi SE 9.2 mph - N/A   Clear
7:35 PM 51.8 °F - 41.0 °F 67% 30.05 in 10.0 mi SE 10.4 mph - N/A   Clear
7:55 PM 51.8 °F - 41.0 °F 67% 30.05 in 10.0 mi SE 10.4 mph - N/A   Clear
8:15 PM 51.8 °F - 39.2 °F 62% 30.04 in 10.0 mi SE 11.5 mph - N/A   Clear
8:35 PM 51.8 °F - 39.2 °F 62% 30.03 in 10.0 mi SE 13.8 mph - N/A   Clear
8:55 PM 51.8 °F - 39.2 °F 62% 30.04 in 10.0 mi SE 11.5 mph 18.4 mph N/A   Clear
9:15 PM 50.0 °F - 39.2 °F 66% 30.04 in 10.0 mi SSE 13.8 mph 18.4 mph N/A   Clear
9:35 PM 50.0 °F - 39.2 °F 66% 30.05 in 10.0 mi SE 11.5 mph - N/A   Clear
9:55 PM 48.2 °F - 39.2 °F 71% 30.04 in 10.0 mi SE 12.7 mph - N/A   Clear
10:15 PM 48.2 °F - 39.2 °F 71% 30.04 in 10.0 mi SSE 11.5 mph - N/A   Clear
10:35 PM 48.2 °F - 41.0 °F 76% 30.04 in 10.0 mi SE 12.7 mph - N/A   Clear
10:55 PM 48.2 °F - 41.0 °F 76% 30.04 in 10.0 mi SSE 12.7 mph - N/A   Clear
11:15 PM 48.2 °F - 41.0 °F 76% 30.04 in 10.0 mi SSE 13.8 mph - N/A   Clear
11:35 PM 48.2 °F - 41.0 °F 76% 30.04 in 10.0 mi SSE 12.7 mph - N/A   Clear
11:55 PM 48.2 °F - 41.0 °F 76% 30.03 in 10.0 mi SSE 12.7 mph 18.4 mph N/A   Clear